Weather History for NZCH - June, 2013

Change the Weather History Date:

Sunday, June 2, 2013

  Actual Average Record
Temperature  
Mean Temperature 58 °F -  
Max Temperature 66 °F 54 °F 66 °F (2004)
Min Temperature 51 °F 35 °F 24 °F (2014)
Degree Days  
Heating Degree Days 6    
Growing Degree Days 8 (Base 50)    
Moisture  
Dew Point 42 °F    
Average Humidity 51    
Maximum Humidity 76    
Minimum Humidity 35    
Precipitation  
Precipitation 0.00 in - - ()
Sea Level Pressure  
Sea Level Pressure 29.58 in    
Wind  
Wind Speed 11 mph ()    
Max Wind Speed 24 mph    
Max Gust Speed 30 mph    
Averages and records for this station are not official NWS values.
T = Trace of Precipitation, MM = Missing Value Source: Averaged Metar Reports

Daily Weather History Graph

Daily Weather History Graph

Search for Another Location

Airport or City:

Trip Planner

Search our weather history database for the weather conditions in past years. The results will help you decide how hot, cold, wet, or windy it might be!

Date:

Astronomy

Jun. 02, 2013 Rise Set
Actual Time 7:53 AM NZST 5:02 PM NZST
Civil Twilight 7:21 AM NZST 5:34 PM NZST
Nautical Twilight 6:45 AM NZST 6:09 PM NZST
Astronomical Twilight 6:10 AM NZST 6:44 PM NZST
Moon 1:09 AM NZST 1:19 PM NZST
Length of Visible Light 10h 13m
Length of Day
9h 08m
Last Quarter, 37% of the Moon is Illuminated
Jun 2
Last Quarter
Jun 9
New
Jun 17
First Quarter
Jun 23
Full
Jun 30
Last Quarter

Hourly Weather History & Observations

Time (NZST) Temp. Dew Point Humidity Pressure Visibility Wind Dir Wind Speed Gust Speed Precip Events Conditions
12:00 AM 51.8 °F 44.6 °F 76% 29.77 in - North 4.6 mph - N/A   Clear
1:00 AM 51.8 °F 44.6 °F 76% 29.74 in - NNE 6.9 mph - N/A   Clear
2:00 AM 53.6 °F 44.6 °F 72% 29.71 in - NNE 8.1 mph - N/A   Clear
3:00 AM 55.4 °F 44.6 °F 67% 29.68 in - NNE 8.1 mph - N/A   Clear
4:00 AM 62.6 °F 44.6 °F 52% 29.65 in - NNW 12.7 mph - N/A   Clear
5:00 AM 64.4 °F 42.8 °F 45% 29.65 in - North 15.0 mph - N/A   Clear
6:00 AM 60.8 °F 42.8 °F 52% 29.65 in - North 11.5 mph - N/A   Clear
7:00 AM 60.8 °F 42.8 °F 52% 29.65 in - NE 11.5 mph - N/A   Clear
8:00 AM 59.0 °F 42.8 °F 55% 29.62 in - NE 18.4 mph - N/A   Clear
9:00 AM 60.8 °F 42.8 °F 52% 29.62 in - NNE 17.3 mph - N/A   Clear
10:00 AM 60.8 °F 42.8 °F 52% 29.62 in - NNE 16.1 mph - N/A   Clear
11:00 AM 64.4 °F 39.2 °F 40% 29.59 in - North 18.4 mph - N/A   Clear
12:00 PM 64.4 °F 41.0 °F 42% 29.56 in - NE 24.2 mph - N/A   Clear
1:00 PM 66.2 °F 41.0 °F 40% 29.50 in - NE 23.0 mph - N/A   Clear
2:00 PM 66.2 °F 42.8 °F 43% 29.50 in - NE 19.6 mph - N/A   Clear
3:00 PM 64.4 °F 41.0 °F 42% 29.47 in - NE 19.6 mph - N/A   Clear
4:00 PM 66.2 °F 39.2 °F 37% 29.47 in - NE 17.3 mph - N/A   Clear
5:00 PM 66.2 °F 37.4 °F 35% 29.47 in - NNW 15.0 mph 29.9 mph N/A   Clear
6:00 PM 60.8 °F 42.8 °F 52% 29.50 in - NE 10.4 mph - N/A   Clear
7:00 PM 59.0 °F 41.0 °F 51% 29.50 in - NE 11.5 mph - N/A   Clear
8:00 PM 60.8 °F 41.0 °F 48% 29.50 in - NE 11.5 mph - N/A   Clear
9:00 PM 60.8 °F 39.2 °F 45% 29.50 in - East 13.8 mph - N/A   Clear
10:00 PM 59.0 °F 39.2 °F 48% 29.50 in - ENE 13.8 mph - N/A   Clear
11:00 PM 62.6 °F 39.2 °F 42% 29.50 in - North 12.7 mph - N/A   Clear